Regional Weather Roundup
Issued by NWS

Home | Current Version | Previous Version | Graphics & Text | Print | Product List | Glossary On
Versions: 1 2 3 4 5 6 7 8 9 10 11 12 13 14 15 16 17 18 19 20 21 22 23 24 25 26 27 28 29 30 31 32 33 34 35 36 37 38 39 40 41 42 43 44 45 46 47 48 49 50
000
ASUS43 KIND 040059
RWRIN

WEATHER ROUNDUP FOR INDIANA
NATIONAL WEATHER SERVICE INDIANAPOLIS IN
900 PM EDT THU SEP 03 2015

NOTE: "FAIR" INDICATES FEW OR NO CLOUDS BELOW 12,000 FEET WITH NO
SIGNIFICANT WEATHER AND/OR OBSTRUCTIONS TO VISIBILITY.

* - STATION DOES NOT REPORT WEATHER SUCH AS PRECIPITATION OR FOG.

+ - STATION NOT QUALITY CONTROLLED BY THE NATIONAL WEATHER SERVICE.
    USE DATA WITH CAUTION...ESPECIALLY DEWPOINT AND RELATIVE
    HUMIDITY OBSERVATIONS.

INZ001>003-010>013-019-020-040200-
NORTHWEST INDIANA

CITY           SKY/WX    TMP DP  RH WIND       PRES   REMARKS
GARY /AIRPORT/ MOCLDY    84  66  54 SW8       29.90R
RENSSELAER +   CLEAR     77  72  83 SW3       29.92R

$$

LMZ046-743>745-040200-
SOUTHERN LAKE MICHIGAN

STATION/POSITION TIME  TEMP    WIND        PRES    WAVE
                       AIR SEA DIR/SP/G            HT
                 (UTC) (F)     (DEG/KT/KT) (MB)    (FT)
BURNS HARBOR     0000   82     260/  6/  9 1012.5R
MICHIGAN CITY    0000   82     220/ 11/ 11   N/A
5NW MICH CITY    0000   79 76  260/  4/  4   N/A     1

$$

INZ004-005-014>016-021>024-040200-
NORTH CENTRAL INDIANA

CITY           SKY/WX    TMP DP  RH WIND       PRES   REMARKS
ELKHART        CLEAR     81  70  69 SW3       29.90S
GOSHEN         CLEAR     77  69  76 SW7       29.90S
PERU/GRISSOM   CLEAR     77  66  69 SW6       29.91F
SOUTH BEND     MOCLDY    81  70  69 SW5       29.90S
WARSAW +       PTCLDY    77  68  73 CALM      29.91S

$$

INZ006>009-017-018-025>027-040200-
NORTHEAST INDIANA

CITY           SKY/WX    TMP DP  RH WIND       PRES   REMARKS
ANGOLA *+      CLEAR     77  72  83 CALM      29.90F
FORT WAYNE     PTCLDY    77  69  76 SW8       29.92F

$$

INZ028-029-035-036-043>045-051>053-040200-
WEST CENTRAL INDIANA

CITY           SKY/WX    TMP DP  RH WIND       PRES   REMARKS
CRAWFORDSVL +  CLEAR     72  67  85 CALM      29.94R
GREENCASTLE +  CLEAR     73  64  73 CALM      29.95R
LAFAYETTE      CLEAR     78  68  71 CALM      29.91S
TERRE HAUTE    CLEAR     78  67  68 CALM      29.93S

$$

INZ030>032-037>040-046>048-054>057-064-065-040200-
CENTRAL INDIANA

CITY           SKY/WX    TMP DP  RH WIND       PRES   REMARKS
FRANKFORT +    CLEAR     76  70  80 CALM      29.95S
GREENWOOD *+   CLEAR     79  64  61 SW5       29.96R
INDIANAPOLIS   PTCLDY    81  65  58 SW7       29.94R
-EAGLE CREEK   CLEAR     81  67  62 SW3       29.94R
KOKOMO *+      CLEAR     81  66  61 W5        29.93S
MT COMFORT *+  CLEAR     77  63  61 SW5       29.96R
SHELBYVILLE    CLEAR     78  68  71 S5        29.94S
ZIONSVILLE +   CLEAR     75  68  77 CALM      29.95S

$$

INZ033-034-041-042-049-050-058-059-040200-
EAST CENTRAL INDIANA

CITY           SKY/WX    TMP DP  RH WIND       PRES   REMARKS
MUNCIE         CLEAR     78  68  71 W3        29.94S

$$

INZ060-061-067>069-081>083-085>088-040200-
SOUTHWEST INDIANA

CITY           SKY/WX    TMP DP  RH WIND       PRES   REMARKS
EVANSVILLE     CLEAR     81  68  64 CALM      29.94R
HUNTINGBURG *+ CLEAR     79  66  65 CALM      29.95R

$$

INZ062-063-066-070>080-084-089>092-040200-
SOUTH CENTRAL AND SOUTHEAST INDIANA

CITY           SKY/WX    TMP DP  RH WIND       PRES   REMARKS
BLOOMINGTON    CLEAR     74  70  87 CALM      29.96R
MADISON *+     CLEAR     73  68  83 CALM      29.98R
SEYMOUR +      CLEAR     75  68  78 CALM      29.95R

$$



USA.gov is the U.S. government's official web portal to all federal, state and local government web resources and services.